TimePDT,TemperatureF,Dew PointF,Humidity,Sea Level PressureIn,VisibilityMPH,Wind Direction,Wind SpeedMPH,Gust SpeedMPH,PrecipitationIn,Events,Conditions,WindDirDegrees,DateUTC
12:53 AM,57.9,43.0,58,29.93,10.0,Calm,Calm,-,N/A,,Clear,0,2013-07-16 07:53:00
1:53 AM,69.1,45.0,42,29.92,10.0,NNW,9.2,-,N/A,,Clear,340,2013-07-16 08:53:00
2:53 AM,68.0,46.9,47,29.92,10.0,Variable,5.8,-,N/A,,Clear,0,2013-07-16 09:53:00
3:53 AM,66.9,48.9,52,29.92,10.0,North,9.2,17.3,N/A,,Clear,360,2013-07-16 10:53:00
4:53 AM,66.0,51.1,59,29.92,10.0,North,8.1,-,N/A,,Clear,360,2013-07-16 11:53:00
5:53 AM,64.9,52.0,63,29.92,10.0,NNW,4.6,-,N/A,,Clear,340,2013-07-16 12:53:00
6:53 AM,66.9,53.1,61,29.93,10.0,NNW,8.1,-,N/A,,Clear,340,2013-07-16 13:53:00
7:53 AM,69.1,52.0,54,29.92,10.0,North,9.2,17.3,N/A,,Clear,350,2013-07-16 14:53:00
8:53 AM,72.0,52.0,49,29.92,10.0,North,13.8,19.6,N/A,,Clear,360,2013-07-16 15:53:00
9:53 AM,73.9,51.1,45,29.91,10.0,North,9.2,16.1,N/A,,Clear,350,2013-07-16 16:53:00
10:53 AM,75.9,50.0,40,29.91,10.0,North,9.2,16.1,N/A,,Clear,350,2013-07-16 17:53:00
11:53 AM,77.0,48.0,36,29.90,10.0,NNW,9.2,19.6,N/A,,Clear,340,2013-07-16 18:53:00
12:53 PM,82.0,48.9,31,29.89,10.0,NNW,8.1,16.1,N/A,,Clear,340,2013-07-16 19:53:00
1:53 PM,82.0,48.0,30,29.89,10.0,Variable,5.8,-,N/A,,Clear,0,2013-07-16 20:53:00
2:53 PM,78.1,46.0,32,29.88,10.0,Calm,Calm,-,N/A,,Clear,0,2013-07-16 21:53:00
3:53 PM,82.0,45.0,27,29.86,10.0,North,6.9,-,N/A,,Clear,350,2013-07-16 22:53:00
4:53 PM,82.9,46.9,28,29.85,10.0,North,6.9,-,N/A,,Clear,350,2013-07-16 23:53:00
5:53 PM,78.1,46.0,32,29.85,10.0,Variable,3.5,-,N/A,,Clear,0,2013-07-17 00:53:00
6:53 PM,73.9,52.0,46,29.86,10.0,Calm,Calm,-,N/A,,Partly Cloudy,0,2013-07-17 01:53:00
7:53 PM,72.0,51.1,48,29.83,10.0,Calm,Calm,-,0.00,,Partly Cloudy,0,2013-07-17 02:53:00
8:53 PM,73.9,46.9,38,29.83,10.0,NNE,5.8,-,N/A,,Clear,30,2013-07-17 03:53:00
9:53 PM,66.9,50.0,54,29.86,10.0,WSW,3.5,-,N/A,,Clear,250,2013-07-17 04:53:00
10:53 PM,61.0,51.1,70,29.87,10.0,Calm,Calm,-,N/A,,Clear,0,2013-07-17 05:53:00
11:53 PM,60.1,51.1,72,29.88,10.0,Calm,Calm,-,N/A,,Clear,0,2013-07-17 06:53:00